STARLINK-36236, 67078

Orbit data source: Space-Track

STARLINK-36236, 67078 is a payload satellite owned by SpaceX/Seattle (US) in LEO that was launched on Sun, 14 Dec 2025 UTC via an FALCON 9 launch vehicle from the Air Force Western Test Range (AFWTR). Payload-class satellites include a variety of spacecraft equipped with specific instruments for various scientific and technological missions. These include communications satellites like Starlink; space stations such as the ISS; scientific satellites like the Hubble; Earth observation satellites from companies like Planet Labs, Umbra, and HawkEye 360; GPS; miniature CubeSats for education and research; and military/defense satellites.

Loading next visibility...
Identifier
67078, 2025-298D
Orbit
LEO
Country
Flag of USUS
Related business
Manufacturer
SpaceX/Seattle
Mission
Operational Commercial Communications
Bus & Motor
STARLINK V2MO, Unknown motor
Mass
575 kg wet, ~530 kg dry
Launch date (UTC)
2025-12-14 (6 months ago)
Launch vehicle
FALCON 9
Launch site
Air Force Western Test Range (AFWTR)
Object type
Payload
Rocket body
Debris
Shape & HBR
Box + 2 Pan, 17.7 m
Radar Cross Section
36.964 m², Large (>1 m²)

Expand to show TLE details & history
Last TLE update: 13 hours ago

TLE from 13 hours ago
0 STARLINK-36236
1 67078U 25298D   26171.29591693  .00000813  00000-0  75953-4 0  9990
2 67078  70.0012 115.8781 0003376 269.0948  90.9824 14.98326847 28585
Epoch: 2026-06-20T07:06Z
TLE epoch observation values (Epoch: 2026-06-20T07:06:07.222Z)
Latitude
-0.00006°
Longitude
100.8354°
Altitude
574.531 km
Speed
7.574 km/s
True Right ascension
07h 43m 30s
True Declination
0° 00' 00"
Sunlit
Object was in daylight at epoch
Visualization orbit readout
Latitude
Unknown
Longitude
Unknown
Altitude
Unknown
Speed
Unknown
Apparent Right ascension
Unknown
Apparent Declination
Unknown
Sunlit
N/A
Visualization observer readout
Local Sidereal Time
07:22:51
Azimuth
Unknown
Elevation
Unknown
Doppler factor
Unknown
Orbital elements
Apogee altitude
572.359 km
Perigee altitude
567.668 km
Semi-major axis
6,948.151 km
Eccentricity
0.00034
Inclination
70.0012°
RAAN
115.8781°
Arg. of periapsis
269.0948°
True anomaly
91.02108°
Mean anomaly
90.9824°
Eccentric anomaly
91.00174°
Mean motion
3.74748 °/min
Orbital period
96.06 mins
BSTAR
0.000075953
Loading maneuver chart data...
Computing Atmospheric mass density...
Loading historical data...
Loading historical data...
Loading historical data...
Loading historical data...
Loading historical data...
Loading historical data...
Loading historical data...

Documentation

Showing up to 5 results
|